Wetbulb
54.77 55.90 55.68 55.77 56.13 56.33 56.60 57.27 57.56 56.58 57.48 57.48 57.57 57.69 57.58 57.16 56.54 56.32 55.52 54.89 54.52 54.62
54.81 54.54 54.88 54.59 55.58 56.13 56.66 56.97 56.64 55.81 56.49 57.23 57.29 57.33 57.19 56.73 56.18 56.45 56.22 55.98 55.06 54.60
55.15 54.77 53.78 53.03 53.10 54.60 55.11 55.82 55.21 55.74 56.20 56.13 56.88 57.27 56.81 56.67 56.56 56.30 56.43 56.25 55.73 55.54
54.99 55.27 55.70 53.99 53.05 53.73 53.91 54.24 54.50 55.72 56.16 56.59 56.46 56.85 56.36 56.09 56.25 55.85 55.80 55.97 55.14 54.95
55.05 56.21 56.21 55.84 54.42 53.69 53.73 54.40 54.95 54.58 55.29 56.19 56.71 57.02 56.29 55.94 56.36 55.56 55.24 55.76 55.56 55.19
54.09 54.47 54.95 56.04 56.35 55.82 54.39 53.85 54.53 54.99 54.66 54.51 54.99 55.58 56.07 56.67 56.14 55.91 55.73 55.78 55.48 55.33
54.21 54.59 54.79 54.87 55.43 56.09 56.74 55.77 55.36 55.28 55.34 55.54 54.75 54.57 54.90 55.56 55.82 56.11 56.19 56.11 55.81 55.56
54.94 54.77 54.57 54.61 55.33 55.61 55.55 56.17 56.55 56.15 55.58 55.49 55.61 55.24 54.73 54.73 54.32 54.23 54.14 54.58 54.66 54.97
48.25 51.60 55.48 55.11 55.19 55.45 56.08 56.10 55.70 55.51 55.71 55.80 55.79 48.72 45.87 50.38 54.80 54.74 54.54 54.02 54.35 54.65
44.26 45.09 45.70 47.73 50.38 54.34 55.41 56.15 56.27 56.36 56.15 55.78 55.77 46.72 45.09 44.35 53.76 54.66 54.64 54.66 54.90 55.06
39.97 41.44 42.06 43.47 44.19 44.48 45.90 48.76 54.59 56.07 56.48 56.26 55.82 37.08 39.74 42.60 52.27 54.37 54.90 55.30 55.27 55.30
36.47 37.30 37.57 38.51 39.05 40.54 42.83 41.56 40.91 37.35 36.70 39.07 36.49 34.86 35.63 37.04 47.92 53.21 53.93 54.59 45.33 39.40
33.92 33.79 34.15 35.84 35.89 37.01 36.78 34.55 32.76 30.76 31.11 31.98 31.85 33.76 35.29 36.56 40.12 44.00 44.34 35.03 33.66 34.02
31.24 31.54 32.01 33.06 33.87 34.05 33.03 32.12 30.37 29.55 29.40 30.02 31.18 31.61 33.58 35.07 34.51 33.33 32.30 31.32 30.45 31.31
MSLP
1008.17 1008.62 1009.33 1009.90 1010.29 1010.59 1010.89 1011.39 1011.98 1012.45 1012.95 1013.33 1013.72 1014.36 1014.98 1015.42 1016.07 1016.56 1017.00 1017.43 1017.77 1017.94
1008.18 1008.47 1008.92 1009.64 1010.20 1010.62 1010.94 1011.26 1011.74 1012.28 1012.67 1013.21 1013.73 1014.12 1014.59 1015.09 1015.63 1015.95 1016.52 1016.85 1017.23 1017.50
1008.10 1008.38 1008.81 1009.23 1009.77 1010.18 1010.68 1011.13 1011.49 1011.86 1012.37 1012.89 1013.46 1013.87 1014.23 1014.72 1015.08 1015.56 1015.79 1016.21 1016.62 1016.83
1008.03 1008.26 1008.64 1009.02 1009.47 1009.92 1010.42 1010.81 1011.23 1011.63 1011.89 1012.38 1012.87 1013.20 1013.73 1014.09 1014.48 1015.04 1015.23 1015.39 1015.61 1015.46
1008.13 1008.36 1008.70 1009.01 1009.43 1009.88 1010.26 1010.68 1011.00 1011.35 1011.74 1012.06 1012.26 1012.52 1012.91 1013.24 1013.53 1013.87 1014.09 1014.18 1014.37 1014.33
1008.01 1008.31 1008.46 1008.69 1009.05 1009.55 1009.98 1010.28 1010.55 1010.86 1011.09 1011.36 1011.64 1011.95 1012.21 1012.38 1012.50 1012.61 1012.76 1013.07 1013.20 1013.24
1007.70 1007.92 1008.08 1008.27 1008.48 1008.72 1009.08 1009.47 1009.76 1010.00 1010.27 1010.55 1010.88 1011.09 1011.32 1011.49 1011.65 1011.70 1011.87 1012.12 1012.13 1012.26
1007.46 1007.47 1007.81 1008.07 1008.23 1008.42 1008.64 1008.77 1008.90 1009.14 1009.38 1009.63 1009.82 1010.07 1010.51 1010.80 1010.95 1011.12 1011.29 1011.34 1011.26 1011.33
1008.04 1007.85 1007.82 1007.73 1007.72 1007.89 1008.10 1008.24 1008.44 1008.56 1008.64 1008.71 1008.79 1008.94 1009.38 1009.77 1009.86 1009.94 1010.06 1010.03 1010.05 1010.11
1009.12 1008.93 1008.73 1008.50 1008.14 1007.93 1007.73 1007.56 1007.59 1007.65 1007.89 1008.02 1008.13 1008.24 1008.42 1008.52 1008.84 1008.81 1008.82 1008.79 1008.74 1008.69
1010.34 1009.87 1009.59 1009.33 1009.12 1008.98 1008.69 1008.28 1007.75 1007.40 1007.13 1007.31 1007.44 1008.64 1008.26 1007.78 1007.67 1007.60 1007.55 1007.52 1007.44 1007.46
1011.16 1010.83 1010.65 1010.43 1010.29 1010.01 1009.56 1009.39 1009.22 1009.46 1009.22 1009.05 1009.40 1009.54 1008.71 1008.08 1007.40 1007.06 1006.70 1006.55 1007.38 1007.83
1012.30 1012.06 1011.73 1011.54 1011.30 1011.10 1010.90 1010.98 1011.06 1011.02 1011.09 1010.98 1010.77 1010.18 1009.27 1008.33 1007.80 1007.67 1007.77 1008.76 1009.08 1009.22
1013.22 1012.85 1012.61 1012.26 1012.01 1011.89 1011.88 1011.95 1012.02 1012.02 1012.19 1011.96 1011.78 1011.30 1010.38 1009.24 1008.84 1009.12 1009.49 1010.36 1011.01 1011.10
Wind_Speed
9 8 7 7 5 5 6 7 10 9 9 11 11 9 9 6 6 6 4 8 7 4
8 8 8 8 5 5 5 6 8 8 8 10 11 9 9 7 11 9 10 10 10 11
8 6 6 7 8 8 6 7 7 8 8 8 10 12 12 10 11 13 12 12 14 12
6 7 8 7 7 7 5 6 6 8 9 11 11 11 11 12 12 14 14 14 14 14
5 7 8 8 8 7 8 6 8 7 9 11 11 13 14 14 13 14 15 14 13 14
6 7 8 8 8 9 9 9 10 11 11 11 12 12 12 14 15 15 15 15 15 15
7 8 7 7 9 11 11 12 13 13 13 14 13 13 14 15 15 16 15 14 15 15
5 6 6 6 8 9 10 11 13 13 13 14 14 12 15 15 15 15 15 15 15 15
9 8 5 8 9 9 11 12 12 13 14 15 12 15 18 17 15 17 17 17 18 17
10 9 9 9 8 6 10 12 14 15 15 16 16 14 17 21 17 16 17 18 18 17
10 10 10 10 10 10 9 9 9 13 14 15 9 16 9 16 18 18 20 20 20 19
11 11 11 11 11 10 9 10 12 14 15 12 13 19 15 10 10 17 20 19 6 6
11 11 11 10 10 9 9 10 9 12 13 17 12 20 18 9 1 6 5 8 8 15
12 12 12 10 10 9 8 8 9 10 10 12 15 17 24 16 9 8 10 9 10 11
Wind_Direction
168 173 178 186 192 185 184 184 178 181 181 179 175 169 173 180 206 189 190 228 227 268
185 179 167 166 171 198 190 195 182 169 172 181 186 179 179 194 204 200 218 229 229 225
185 179 163 161 178 181 178 185 173 171 175 175 190 198 195 202 210 211 216 220 223 217
186 184 186 186 186 182 173 177 175 193 196 194 194 202 208 214 206 209 215 217 215 221
197 192 195 199 193 192 192 188 200 189 205 215 213 208 207 213 212 213 219 217 215 224
195 200 205 201 196 194 203 209 212 212 212 212 216 217 219 224 225 224 223 221 219 223
201 209 210 210 211 209 202 210 218 220 224 226 225 222 222 222 226 230 231 231 233 232
220 203 202 207 216 221 221 223 223 220 221 225 228 224 226 228 231 234 238 237 235 231
24 14 249 231 223 222 226 224 228 228 229 227 227 220 214 225 232 234 234 238 239 241
22 21 13 357 0 300 250 231 232 232 234 238 240 227 215 212 229 236 240 242 244 243
18 20 13 10 7 352 340 333 285 245 237 238 237 11 316 239 225 232 239 243 243 242
16 21 18 15 7 357 348 13 29 37 32 28 35 3 356 338 251 241 241 242 327 338
22 25 24 23 21 27 33 44 48 49 41 33 28 15 11 357 327 317 352 40 46 24
30 33 26 31 30 42 53 61 55 57 47 43 33 27 30 46 63 71 69 56 46 27